THEMIS A

Last updated on Tue Jan 14 2025 00:02:33 GMT+0000 (Coordinated Universal Time)

1 30580U 07004A 25012.95151344 -.00000102 00000+0 00000+0 0 9991 2 30580 6.9526 245.8634 8424205 2.6507 0.3988 0.87838537 36706
UTC large
Height (km)
Speed (km/s)
/
Latitude / Longitude
Inclination (degrees)
Orbital Period (minutes)
Azimuth
Elevation
Range (km)
Doppler Factor

Next 0 passes for location: London (51.5072 / 0.1276)

Sorry there are no passes over London.